Regional Weather Roundup
Issued by NWS Green Bay, WI

Home | Current Version | Previous Version | Graphics & Text | Print | Product List | Glossary Off
Versions: 1 2 3 4 5 6 7 8 9 10 11 12 13 14 15 16 17 18 19 20 21 22 23 24 25 26 27 28 29 30 31 32 33 34 35 36 37 38 39 40 41 42 43 44 45 46 47 48 49 50

000
ASUS43 KGRB 010359
RWRGRB

NORTH-CENTRAL AND NORTHEAST WISCONSIN REGIONAL WEATHER ROUNDUP
NATIONAL WEATHER SERVICE GREEN BAY WI
1100 PM CDT SUN AUG 31 2014

WIZ005-009-010>012-018-019-010500-
NORTH CENTRAL WISCONSIN

CITY           SKY/WX    TMP DP  RH WIND       PRES   REMARKS
IRONWOOD       NOT AVBL
MANITOWISH WTR NOT AVBL
ARBOR VITAE    NOT AVBL
EAGLE RIVER    NOT AVBL
LAND O LAKES   NOT AVBL
RHINELANDER    CLOUDY    69  65  86 S10       29.79R
PHILLIPS       NOT AVBL
ANTIGO         NOT AVBL
TOMAHAWK       NOT AVBL
MERRILL        NOT AVBL
$$

WIZ013-073-010500-
NORTHEAST WISCONSIN

CITY           SKY/WX    TMP DP  RH WIND       PRES   REMARKS
IRON MOUNTAIN  FOG       63  63 100 SE6       29.81R VSB 1
MARINETTE      MOCLDY    66  63  88 S6        29.81R
$$

WIZ017-030-035>037-045-010500-
CENTRAL WISCONSIN

CITY           SKY/WX    TMP DP  RH WIND       PRES   REMARKS
MEDFORD        NOT AVBL
WAUSAU         CLOUDY    72  67  84 SE7       29.78R
MOSINEE        NOT AVBL
MARSHFIELD     CLOUDY    72  68  87 SE7       29.76S
WISC RAPIDS    CLOUDY    75  67  76 S9        29.78R
STEVENS POINT  NOT AVBL
WAUPACA        NOT AVBL
SHAWANO        NOT AVBL
CLINTONVILLE   NOT AVBL
$$

WIZ038-039-048-051-010500-
FOX VALLEY

CITY           SKY/WX    TMP DP  RH WIND       PRES   REMARKS
NWS GREEN BAY  MOCLDY    67  65  93 S5        29.81R
APPLETON       MOCLDY    70  68  94 SE9       29.80R
OSHKOSH        CLEAR     69  67  93 S10       29.80R
FOND DU LAC    PTCLDY    70  66  87 S8        29.81S
$$

WIZ022-050-052-010500-
EAST CENTRAL WISCONSIN

CITY           SKY/WX    TMP DP  RH WIND       PRES   REMARKS
STURGEON BAY   CLOUDY    66  63  88 S10       29.82S
MANITOWOC      NOT AVBL
SHEBOYGAN      MOCLDY    68  67  96 S7        29.83R FOG
$$

LMZ563-521-522-541>543-010500-
LAKESHORE

STATION/POSITION TIME  TEMP    WIND        PRES    VSBY  WAVE
                       AIR SEA DIR/SP/G                  HT/PER
                 (UTC) (F)     (DEG/KT/KT) (MB)    (MI)  (FT/S)
SHEBOYGAN LKSHOR 0300   65 50  150/  6/  7 1010.0F
KEWAUNEE LKSHORE 0300   64     190/  7/  8 1009.3F
NORTHPORT PIER   0300   66     150/  9/ 13 1009.8S
N MID LAKE BUOY  0300   65 65  140/ 12/ 12 1009.7F         1
S GREEN BAY BUOY 0300   68     VRB 10/ 12  1010.0F
CHAMBERS ISLAND  0300   65     140/  3/  6 1009.8S
MENOMINEE LKSHOR 0300   67     160/  8/ 10 1010.0F
$$



USA.gov is the U.S. government's official web portal to all federal, state and local government web resources and services.